KI5RAB Weather Reports


time (UTC)temp
C
wind
direction
speed
KPH
gust
KPH
rain 1hr
cm
rain 24hr
cm
rain mn
cm
humidity
%
barometer
mb
20260506233654 22 24 6.4 6.4 0.00 0.00 0.00 74 1013.8
20260506233151 22 305 3.2 3.2 0.00 0.00 0.00 73 1013.8
20260506232647 22 323 1.6 1.6 0.00 0.00 0.00 73 1013.6
20260506232143 23 334 4.8 9.7 0.00 0.00 0.00 72 1013.6
20260506231640 24 7 3.2 4.8 0.00 0.00 0.00 72 1013.4
20260506231139 25 33 8.0 14.5 0.00 0.00 0.00 71 1013.4
20260506230635 25 319 3.2 3.2 0.00 0.00 0.00 70 1013.2
20260506230132 25 191 3.2 6.4 0.00 0.00 0.00 70 1013.0
20260506225628 25 1 3.2 6.4 0.00 0.00 0.00 71 1013.2
20260506225125 25 347 4.8 4.8 0.00 0.00 0.00 71 1013.1
20260506224622 25 26 3.2 6.4 0.00 0.00 0.00 72 1013.2
20260506224118 25 343 3.2 4.8 0.00 0.00 0.00 71 1012.9
20260506223614 25 307 4.8 6.4 0.00 0.00 0.00 71 1012.9
20260506223110 26 12 6.4 12.9 0.00 0.00 0.00 71 1012.8
20260506222608 26 359 6.4 11.3 0.00 0.00 0.00 71 1012.7
20260506222104 26 46 6.4 11.3 0.00 0.00 0.00 70 1012.8
20260506221602 26 59 3.2 4.8 0.00 0.00 0.00 70 1012.4
20260506221100 27 69 6.4 9.7 0.00 0.00 0.00 69 1012.5
20260506220555 27 347 6.4 9.7 0.00 0.00 0.00 69 1012.5
20260506220051 27 98 9.7 16.1 0.00 0.00 0.00 69 1012.4
20260506215548 27 324 6.4 11.3 0.00 0.00 0.00 68 1012.4
20260506215043 27 52 6.4 12.9 0.00 0.00 0.00 70 1012.6
20260506214541 28 44 1.6 1.6 0.00 0.00 0.00 70 1012.6
20260506214038 27 347 3.2 6.4 0.00 0.00 0.00 71 1012.3
20260506213536 27 29 1.6 3.2 0.00 0.00 0.00 72 1012.5
20260506213033 27 56 6.4 6.4 0.00 0.00 0.00 71 1012.6
20260506212530 27 6 1.6 3.2 0.00 0.00 0.00 71 1012.3
20260506212024 27 340 3.2 6.4 0.00 0.00 0.00 71 1012.2
20260506211521 29 323 3.2 6.4 0.00 0.00 0.00 68 1012.3
20260506211018 31 39 1.6 4.8 0.00 0.00 0.00 62 1012.1
20260506210514 31 59 6.4 9.7 0.00 0.00 0.00 61 1012.2
20260506210011 31 331 3.2 3.2 0.00 0.00 0.00 62 1012.1
20260506205508 31 327 0.0 1.6 0.00 0.00 0.00 60 1012.3
20260506205003 31 340 1.6 3.2 0.00 0.00 0.00 63 1012.2
20260506204501 30 338 1.6 1.6 0.00 0.00 0.00 66 1012.4
20260506203953 30 355 3.2 3.2 0.00 0.00 0.00 67 1012.4
20260506203450 30 26 6.4 9.7 0.00 0.00 0.00 67 1012.5
20260506202947 31 357 3.2 4.8 0.00 0.00 0.00 62 1012.5
20260506202444 30 26 3.2 3.2 0.00 0.00 0.00 65 1012.3
20260506201940 30 355 0.0 1.6 0.00 0.00 0.00 66 1012.4
20260506201438 31 58 4.8 6.4 0.00 0.00 0.00 63 1012.6
20260506200934 31 320 3.2 3.2 0.00 0.00 0.00 64 1012.8
20260506200430 30 327 1.6 3.2 0.00 0.00 0.00 64 1012.8
20260506195927 30 9 3.2 3.2 0.00 0.00 0.00 65 1012.8
20260506195424 30 344 3.2 3.2 0.00 0.00 0.00 68 1012.9
20260506194921 29 328 1.6 1.6 0.00 0.00 0.00 68 1012.8
20260506194418 30 329 0.0 0.0 0.00 0.00 0.00 68 1012.8
20260506193915 30 316 0.0 0.0 0.00 0.00 0.00 70 1012.8
20260506193412 29 332 0.0 1.6 0.00 0.00 0.00 69 1012.7
20260506192908 30 318 1.6 1.6 0.00 0.00 0.00 67 1012.8
20260506192405 30 321 0.0 0.0 0.00 0.00 0.00 68 1012.8
20260506191902 30 315 0.0 0.0 0.00 0.00 0.00 68 1012.9
20260506191358 30 348 3.2 3.2 0.00 0.00 0.00 69 1013.0
20260506190855 29 46 3.2 4.8 0.00 0.00 0.00 70 1013.2
20260506190352 28 310 0.0 1.6 0.00 0.00 0.00 73 1013.1
20260506185849 28 4 1.6 1.6 0.00 0.00 0.00 71 1013.1
20260506185346 29 344 6.4 9.7 0.00 0.00 0.00 69 1013.3
20260506184843 28 3 3.2 3.2 0.00 0.00 0.00 70 1013.2
20260506184340 28 242 1.6 3.2 0.00 0.00 0.00 74 1013.3
20260506183837 28 341 1.6 3.2 0.00 0.00 0.00 75 1013.4
20260506183332 28 316 0.0 1.6 0.00 0.00 0.00 74 1013.6
20260506182830 27 332 1.6 3.2 0.00 0.00 0.00 76 1013.5
20260506182327 27 359 6.4 6.4 0.00 0.00 0.00 77 1013.6
20260506181825 27 24 3.2 6.4 0.00 0.00 0.00 78 1013.6
20260506181322 26 321 1.6 1.6 0.00 0.00 0.00 81 1013.7
20260506180819 26 58 1.6 3.2 0.00 0.00 0.00 81 1013.8
20260506180315 26 357 0.0 1.6 0.00 0.00 0.00 81 1013.9
20260506175812 26 24 6.4 9.7 0.00 0.00 0.00 82 1014.0
20260506175308 26 339 4.8 4.8 0.00 0.00 0.00 82 1013.9
20260506174806 26 340 0.0 1.6 0.00 0.00 0.00 81 1014.1
20260506174303 26 23 1.6 1.6 0.00 0.00 0.00 82 1014.2
20260506173800 26 17 3.2 3.2 0.00 0.00 0.00 81 1014.1
20260506173257 26 351 0.0 1.6 0.00 0.00 0.00 82 1013.9
20260506172754 26 344 0.0 0.0 0.00 0.00 0.00 82 1014.0
20260506172250 26 337 0.0 1.6 0.00 0.00 0.00 82 1014.0
20260506171748 26 14 3.2 3.2 0.00 0.00 0.00 82 1014.2
20260506171245 26 334 0.0 0.0 0.00 0.00 0.00 83 1014.3
20260506170743 25 326 1.6 1.6 0.00 0.00 0.00 84 1014.1
20260506170239 25 329 0.0 1.6 0.00 0.00 0.00 84 1014.2
20260506165738 25 48 1.6 4.8 0.00 0.00 0.00 83 1014.2
20260506165234 26 344 1.6 1.6 0.00 0.00 0.00 82 1014.2
20260506164732 26 320 0.0 1.6 0.00 0.00 0.00 81 1014.1
20260506164228 26 13 1.6 1.6 0.00 0.00 0.00 83 1014.2
20260506163725 26 335 3.2 3.2 0.00 0.00 0.00 83 1013.9
20260506163220 25 60 1.6 1.6 0.00 0.00 0.00 84 1014.2
20260506162716 26 13 3.2 3.2 0.00 0.00 0.00 85 1014.1
20260506162214 25 4 0.0 1.6 0.00 0.00 0.00 84 1014.1
20260506161711 25 316 1.6 1.6 0.00 0.00 0.00 85 1014.0
20260506161208 26 335 0.0 1.6 0.00 0.00 0.00 84 1014.1
20260506160706 26 34 4.8 4.8 0.00 0.00 0.00 84 1013.9
20260506160202 25 333 1.6 1.6 0.00 0.00 0.00 86 1013.8
20260506155701 25 341 1.6 3.2 0.00 0.00 0.00 86 1013.8
20260506155157 25 11 0.0 0.0 0.00 0.00 0.00 87 1013.9
20260506153259 24 1 3.2 3.2 0.00 0.00 0.00 90 1013.8
20260506152756 24 333 0.0 1.6 0.00 0.00 0.00 91 1013.5
20260506152254 24 359 1.6 3.2 0.00 0.00 0.00 90 1013.5
20260506151753 24 15 0.0 1.6 0.00 0.00 0.00 91 1013.4
20260506151249 24 13 1.6 1.6 0.00 0.00 0.00 91 1013.4
20260506150745 24 328 1.6 1.6 0.00 0.00 0.00 91 1013.3
20260506150243 24 327 0.0 0.0 0.00 0.00 0.00 92 1013.2
20260506145739 24 320 0.0 0.0 0.00 0.00 0.00 92 1013.2
20260506145236 23 323 0.0 0.0 0.00 0.00 0.00 92 1013.4
20260506144733 23 318 0.0 0.0 0.00 0.00 0.00 92 1013.2
20260506144230 23 321 0.0 0.0 0.00 0.00 0.00 92 1013.3
20260506143728 23 330 0.0 1.6 0.00 0.00 0.00 92 1013.1
20260506143225 23 344 1.6 1.6 0.00 0.00 0.00 92 1013.1
20260506142724 23 328 0.0 1.6 0.00 0.00 0.00 92 1012.7
20260506142221 23 331 0.0 0.0 0.00 0.00 0.00 92 1012.7
20260506141719 24 348 0.0 0.0 0.00 0.00 0.00 91 1012.8
20260506141217 23 322 0.0 0.0 0.00 0.00 0.00 91 1012.7
20260506140714 23 320 0.0 0.0 0.00 0.00 0.00 91 1012.8
20260506140211 24 327 0.0 0.0 0.00 0.00 0.00 91 1012.3
20260506135708 24 317 0.0 0.0 0.00 0.00 0.00 91 1012.4
20260506135204 23 324 0.0 0.0 0.00 0.00 0.00 91 1012.3
20260506134701 23 317 0.0 0.0 0.00 0.00 0.00 91 1012.1
20260506134157 23 323 0.0 0.0 0.00 0.00 0.00 90 1011.9
20260506133655 23 324 0.0 1.6 0.00 0.00 0.00 90 1012.1
20260506133151 23 108 3.2 4.8 0.00 0.00 0.00 91 1012.2
20260506132649 23 315 0.0 0.0 0.00 0.00 0.00 91 1012.0
20260506132145 23 326 0.0 0.0 0.00 0.00 0.00 91 1011.9
20260506131643 23 293 1.6 3.2 0.00 0.00 0.00 91 1011.8
20260506131139 23 11 1.6 3.2 0.00 0.00 0.00 91 1011.8
20260506130636 23 357 0.0 0.0 0.00 0.00 0.00 91 1011.5
20260506130133 23 298 0.0 0.0 0.00 0.00 0.00 91 1011.8
20260506125632 23 320 0.0 0.0 0.00 0.00 0.00 91 1011.6
20260506125129 23 328 0.0 0.0 0.00 0.00 0.00 91 1011.5
20260506124627 23 123 3.2 4.8 0.00 0.00 0.00 91 1011.5
20260506124124 23 343 0.0 0.0 0.00 0.00 0.00 91 1011.5
20260506123622 23 329 0.0 1.6 0.00 0.00 0.00 91 1011.9
20260506123120 23 359 1.6 1.6 0.00 0.00 0.00 91 1011.6
20260506122616 23 348 0.0 0.0 0.00 0.00 0.00 91 1011.7
20260506122114 23 51 3.2 4.8 0.00 0.00 0.00 91 1011.7
20260506121612 23 12 0.0 1.6 0.00 0.00 0.00 92 1011.7
20260506121108 23 339 0.0 1.6 0.00 0.00 0.00 92 1011.7
20260506120606 23 321 0.0 0.0 0.00 0.00 0.00 92 1011.5
20260506115601 23 7 1.6 3.2 0.00 0.00 0.00 92 1011.5
20260506115059 23 327 0.0 0.0 0.00 0.00 0.00 91 1011.7
20260506114556 23 337 0.0 0.0 0.00 0.00 0.00 91 1011.7
20260506114054 23 326 1.6 3.2 0.00 0.00 0.00 91 1011.3
20260506113552 23 326 0.0 0.0 0.00 0.00 0.00 91 1011.2
20260506113049 23 319 0.0 0.0 0.00 0.00 0.00 91 1011.6
20260506112546 23 320 0.0 0.0 0.00 0.00 0.00 91 1011.6
20260506112043 23 323 0.0 1.6 0.00 0.00 0.00 91 1011.5
20260506111541 23 322 0.0 0.0 0.00 0.00 0.00 91 1011.6
20260506111038 23 340 0.0 0.0 0.00 0.00 0.00 91 1011.7
20260506110536 23 318 0.0 0.0 0.00 0.00 0.00 91 1011.5
20260506110033 23 321 0.0 0.0 0.00 0.00 0.00 90 1011.8
20260506105528 23 357 0.0 1.6 0.00 0.00 0.00 90 1011.6
20260506105026 23 335 0.0 0.0 0.00 0.00 0.00 90 1011.3
20260506104524 23 324 0.0 1.6 0.00 0.00 0.00 90 1011.3
20260506104022 23 320 0.0 0.0 0.00 0.00 0.00 90 1011.2
20260506103519 23 335 0.0 0.0 0.00 0.00 0.00 91 1011.2
20260506103015 23 308 1.6 3.2 0.00 0.00 0.00 91 1011.5
20260506102514 23 319 0.0 0.0 0.00 0.00 0.00 90 1011.3
20260506102011 23 340 0.0 0.0 0.00 0.00 0.00 90 1011.3
20260506101507 23 355 1.6 1.6 0.00 0.00 0.00 90 1011.2
20260506101004 23 320 0.0 0.0 0.00 0.00 0.00 90 1011.3
20260506100503 23 332 0.0 0.0 0.00 0.00 0.00 90 1011.2
20260506100000 23 324 0.0 0.0 0.00 0.00 0.00 90 1011.1
20260506095459 23 326 0.0 0.0 0.00 0.00 0.00 90 1011.3
20260506094954 23 321 0.0 0.0 0.00 0.00 0.00 90 1011.3
20260506094453 23 322 0.0 0.0 0.00 0.00 0.00 90 1011.3
20260506093950 23 326 0.0 1.6 0.00 0.00 0.00 90 1011.3
20260506093448 23 335 0.0 0.0 0.00 0.00 0.00 90 1011.1
20260506092946 23 326 0.0 0.0 0.00 0.00 0.00 90 1011.5
20260506092444 23 317 0.0 0.0 0.00 0.00 0.00 90 1011.1
20260506091940 23 315 1.6 3.2 0.00 0.00 0.00 90 1010.9
20260506091438 23 324 0.0 0.0 0.00 0.00 0.00 90 1011.2
20260506090935 23 312 1.6 1.6 0.00 0.00 0.00 90 1011.2
20260506090433 23 340 1.6 3.2 0.00 0.00 0.00 90 1011.0
20260506085929 23 298 1.6 1.6 0.00 0.00 0.00 90 1011.0
20260506085426 23 88 3.2 4.8 0.00 0.00 0.00 90 1011.1
20260506084922 23 269 0.0 1.6 0.00 0.00 0.00 90 1011.3
20260506084420 23 324 0.0 0.0 0.00 0.00 0.00 90 1011.2
20260506083915 23 17 3.2 4.8 0.00 0.00 0.00 90 1011.2
20260506083413 23 329 0.0 0.0 0.00 0.00 0.00 90 1011.2
20260506082910 23 319 0.0 0.0 0.00 0.00 0.00 90 1011.1
20260506082407 23 14 1.6 4.8 0.00 0.00 0.00 90 1011.5
20260506081902 24 328 1.6 3.2 0.00 0.00 0.00 90 1011.5
20260506081401 24 309 1.6 1.6 0.00 0.00 0.00 89 1011.5
20260506080858 24 323 0.0 0.0 0.00 0.00 0.00 89 1011.5
20260506080355 24 352 0.0 1.6 0.00 0.00 0.00 89 1011.3
20260506073339 24 320 0.0 0.0 0.00 0.00 0.00 89 1011.5
20260506072835 24 306 0.0 0.0 0.00 0.00 0.00 89 1011.8
20260506072333 24 60 1.6 3.2 0.00 0.00 0.00 89 1011.5
20260506071831 24 318 0.0 0.0 0.00 0.00 0.00 89 1011.7
20260506071329 24 328 1.6 1.6 0.00 0.00 0.00 89 1012.0
20260506070826 24 55 3.2 4.8 0.00 0.00 0.00 89 1011.8
20260506070322 24 19 0.0 1.6 0.00 0.00 0.00 89 1011.7
20260506062300 24 318 6.4 9.7 0.00 0.00 0.00 89 1011.8
20260506061755 24 309 0.0 0.0 0.00 0.00 0.00 89 1011.9
20260506061253 24 19 1.6 1.6 0.00 0.00 0.00 89 1011.7
20260506060751 24 76 1.6 3.2 0.00 0.00 0.00 89 1011.7
20260506060248 24 55 3.2 6.4 0.00 0.00 0.00 89 1011.9
20260506051220 25 319 0.0 0.0 0.00 0.00 0.00 88 1011.9
20260506050718 25 106 1.6 1.6 0.00 0.00 0.00 88 1011.8
20260506050215 25 347 0.0 1.6 0.00 0.00 0.00 88 1011.6
20260506044706 25 330 0.0 0.0 0.00 0.00 0.00 88 1011.6
20260506044203 25 353 1.6 3.2 0.00 0.00 0.00 88 1011.8
20260506043700 25 193 1.6 3.2 0.00 0.00 0.00 87 1011.8
20260506043158 25 329 0.0 1.6 0.00 0.00 0.00 87 1011.8
20260506042657 25 69 1.6 4.8 0.00 0.00 0.00 87 1011.7
20260506042155 25 5 0.0 0.0 0.00 0.00 0.00 87 1011.6
20260506041653 25 6 0.0 0.0 0.00 0.00 0.00 87 1011.6
20260506041149 25 327 0.0 1.6 0.00 0.00 0.00 87 1011.5
20260506040647 25 340 3.2 4.8 0.00 0.00 0.00 87 1011.6
20260506040144 25 324 1.6 1.6 0.00 0.00 0.00 87 1011.5
20260506035641 25 345 1.6 1.6 0.00 0.00 0.00 87 1011.3
20260506035137 25 346 1.6 1.6 0.00 0.00 0.00 87 1011.5
20260506034634 25 6 1.6 3.2 0.00 0.00 0.00 86 1011.2
20260506034131 25 67 3.2 9.7 0.00 0.00 0.00 86 1011.0
20260506033629 25 45 4.8 9.7 0.00 0.00 0.00 86 1011.1
20260506033126 25 320 0.0 0.0 0.00 0.00 0.00 86 1010.8
20260506032623 25 335 0.0 1.6 0.00 0.00 0.00 86 1010.9
20260506032120 25 328 3.2 3.2 0.00 0.00 0.00 86 1010.7
20260506031617 26 6 0.0 1.6 0.00 0.00 0.00 85 1010.6
20260506031113 26 52 1.6 3.2 0.00 0.00 0.00 85 1010.7
20260506030612 26 326 1.6 1.6 0.00 0.00 0.00 84 1010.7
20260506030109 26 67 1.6 3.2 0.00 0.00 0.00 84 1010.4
20260506025606 26 4 1.6 3.2 0.00 0.00 0.00 84 1010.5
20260506025102 26 318 1.6 1.6 0.00 0.00 0.00 83 1010.5
20260506024559 26 334 0.0 0.0 0.00 0.00 0.00 83 1010.2
20260506024055 26 44 3.2 4.8 0.00 0.00 0.00 83 1010.2
20260506023551 26 269 1.6 1.6 0.00 0.00 0.00 82 1010.2
20260506023049 26 318 0.0 1.6 0.00 0.00 0.00 82 1010.0
20260506022547 27 38 4.8 9.7 0.00 0.00 0.00 81 1010.1
20260506022044 27 291 3.2 4.8 0.00 0.00 0.00 81 1010.0
20260506021541 27 337 0.0 0.0 0.00 0.00 0.00 80 1010.1
20260506021038 27 1 0.0 1.6 0.00 0.00 0.00 79 1010.0
20260506020536 27 42 1.6 3.2 0.00 0.00 0.00 78 1010.0
20260506020033 27 339 0.0 0.0 0.00 0.00 0.00 77 1009.8
20260506015531 27 22 1.6 1.6 0.00 0.00 0.00 77 1009.7
20260506015027 28 9 6.4 6.4 0.00 0.00 0.00 76 1009.6
20260506014525 28 344 0.0 1.6 0.00 0.00 0.00 75 1009.6
20260506014021 28 358 0.0 1.6 0.00 0.00 0.00 75 1009.5
20260506013519 28 341 0.0 1.6 0.00 0.00 0.00 75 1009.5
20260506013015 28 23 3.2 4.8 0.00 0.00 0.00 75 1009.4
20260506012511 28 13 4.8 6.4 0.00 0.00 0.00 74 1009.2
20260506012009 28 80 8.0 9.7 0.00 0.00 0.00 74 1009.1
20260506011506 28 9 1.6 3.2 0.00 0.00 0.00 73 1009.2
20260506011002 28 352 3.2 4.8 0.00 0.00 0.00 73 1009.1
20260506010502 28 354 0.0 0.0 0.00 0.00 0.00 73 1008.9
20260506005957 28 332 3.2 3.2 0.00 0.00 0.00 72 1008.9
20260506005455 29 40 3.2 3.2 0.00 0.00 0.00 72 1008.9
20260506004950 28 21 3.2 4.8 0.00 0.00 0.00 72 1008.8
20260506004448 29 32 3.2 4.8 0.00 0.00 0.00 72 1008.7
20260506003944 29 21 1.6 3.2 0.00 0.00 0.00 72 1008.9
20260506003441 29 15 0.0 1.6 0.00 0.00 0.00 71 1008.9
20260506002937 29 337 0.0 1.6 0.00 0.00 0.00 71 1008.9
20260506002433 29 336 0.0 1.6 0.00 0.00 0.00 71 1008.7
20260506001928 30 81 1.6 3.2 0.00 0.00 0.00 70 1008.8
20260506001426 30 325 0.0 0.0 0.00 0.00 0.00 70 1008.7
20260506000923 30 323 0.0 0.0 0.00 0.00 0.00 69 1008.8
20260506000423 30 322 0.0 0.0 0.00 0.00 0.00 68 1008.8
20260505235917 30 320 0.0 0.0 0.00 0.00 0.00 69 1008.5
20260505235415 30 320 0.0 0.0 0.00 0.00 0.00 69 1008.6
20260505234912 30 307 1.6 1.6 0.00 0.00 0.00 69 1008.8
20260505234409 30 300 1.6 3.2 0.00 0.00 0.00 69 1008.7
20260505233906 30 328 1.6 3.2 0.00 0.00 0.00 68 1008.7